Location: Bow
(51.5261°N, 0.0167°W)
Time: 16:40:28
(UTC+00:00)

Cosmos 2285 Rocket - Pass Details

Date: 18 September 2020
Orbit: 970 x 1000 km, 74.0° (Epoch: 30 October)

Event Time Altitude Azimuth Distance (km) Brightness Sun altitude
Rises 21:19:14 0° 217° (SW) 3,657 6.9 -27.8°
Reaches altitude 10° 21:21:48 10° 221° (SW) 2,716 6.3 -28.1°
Maximum altitude 21:28:01 59° 301° (WNW) 1,122 4.5 -28.7°
Drops below altitude 10° 21:34:18 10° 20° (NNE) 2,750 6.7 -29.4°
Sets 21:36:55 0° 25° (NNE) 3,706 7.3 -29.7°
